Hourly Weather Roundup
Issued by NWS

Current Version | Previous Version | Text Only | Print | Product List | Glossary On
Versions: 1 2 3 4 5 6 7 8 9 10 11 12 13 14 15 16 17 18 19 20 21 22 23 24 25 26 27 28 29 30 31 32 33 34 35 36 37 38 39 40 41 42 43 44 45 46 47 48 49 50
000
NZUS43 KILX 290110
HWRCRS

NWR Hourly Weather Roundup
National Weather Service Lincoln IL
800 PM CDT SUN MAY 28 2017


CITY           SKY/WX    TMP DP  RH WIND       PRES   REMARKS
Champaign      PTCLDY    72  51  47 W8        29.81R
Lawrenceville  PTCLDY    74  64  71 SW10      29.83S
Peoria         CLEAR     74  45  35 NW6       29.81R
Springfield    LGT RAIN  76  55  48 W15G23    29.84R
$$


CITY           SKY/WX    TMP DP  RH WIND       PRES   REMARKS
Bloomington    PTCLDY    74  52  46 W13       29.82R
Danville       CLEAR     69  57  63 W3        29.78R
Decatur        CLEAR     73  51  46 W8        29.82S
Effingham      CLEAR     71  58  65 W6        29.85S
Flora          CLEAR     75  62  63 W7        29.85S
Galesburg      CLEAR     71  49  45 W6        29.81R
Jacksonville   PTCLDY    69  56  62 SW6       29.84S
Lacon          CLEAR     72  48  42 W8        29.78S
La Salle       CLEAR     71  47  42 W9        29.79R
Lincoln        CLEAR     76  54  46 CALM      29.81S
Litchfield     CLEAR     72  56  56 W7        29.85F

CITY           SKY/WX    TMP DP  RH WIND       PRES   REMARKS
Macomb         CLEAR     73  49  43 W6        29.84S
Mattoon        CLEAR     73  55  53 W7        29.82R
Moline         PTCLDY    73  49  42 SW8       29.78S
Olney          PTCLDY    73  68  83 SW3       29.85R
Paris          CLEAR     71  56  58 NW8       29.82R
Pontiac        PTCLDY    74  56  52 W12       29.79R
Quincy         CLEAR     72  49  44 W6        29.84S
Rantoul        CLEAR     74  54  48 W8        29.80S
Robinson       PTCLDY    73  63  72 W10       29.83S
Taylorville    PTCLDY    73  53  48 W5        29.84S
Terre Haute    PTCLDY    73  54  51 NW7       29.81R
$$


CITY           SKY/WX    TMP DP  RH WIND       PRES   REMARKS
Burlington     CLOUDY    72  54  53 CALM      29.81S
Chicago        PTCLDY    74  46  36 W15       29.74R
Des Moines     PTCLDY    75  40  28 NW14      29.82R
Evansville     CLEAR     73  62  68 W5        29.86R
Indianapolis   CLOUDY    66  64  93 SW9       29.80R
Kansas City    PTCLDY    73  52  47 W8        29.90F
Milwaukee      PTCLDY    74  46  36 W12G21    29.71R
St Louis       PTCLDY    77  53  43 W8        29.87S
$$





USA.gov is the U.S. government's official web portal to all federal, state and local government web resources and services.